Weather History for Franklin, PA

Change the Weather History Date:

Sunday, April 13, 2014

  Actual Average Record
Temperature  
Mean Temperature 68 °F -  
Max Temperature 78 °F 59 °F 84 °F (1977)
Min Temperature 57 °F 31 °F 20 °F (1950)
Cooling Degree Days 2    
Growing Degree Days 18 (Base 50)    
Moisture  
Dew Point 45 °F    
Average Humidity 46    
Maximum Humidity 59    
Minimum Humidity 31    
Precipitation  
Precipitation 0.00 in - - ()
Sea Level Pressure  
Sea Level Pressure 29.93 in    
Wind  
Wind Speed 13 mph (SSW)    
Max Wind Speed 29 mph    
Max Gust Speed 37 mph    
Visibility 10 miles    
Events      
Averages and records for this station are not official NWS values.
T = Trace of Precipitation, MM = Missing Value Source: NWS Daily Summary

Daily Weather History Graph

Daily Weather History Graph

Search for Another Location

Airport:

Trip Planner

Search our weather history database for the weather conditions in past years. The results will help you decide how hot, cold, wet, or windy it might be!

Date:

Astronomy

Apr. 13, 2014 Rise Set
Actual Time 6:42 AM EDT 7:57 PM EDT
Civil Twilight 6:14 AM EDT 8:26 PM EDT
Nautical Twilight 5:40 AM EDT 9:00 PM EDT
Astronomical Twilight 5:04 AM EDT 9:36 PM EDT
Moon 6:33 PM EDT (4/13) 5:42 AM EDT (4/13)
Length of Visible Light 14h 11m
Length of Day
13h 14m
Waxing Gibbous, 97% of the Moon is Illuminated
Apr 13
Waxing Gibbous
Apr 15
Full
Apr 22
Last Quarter
Apr 29
New
May 6
First Quarter

Hourly Weather History & Observations

Time (EDT) Temp. Dew Point Humidity Pressure Visibility Wind Dir Wind Speed Gust Speed Precip Events Conditions
12:15 AM 60.8 °F 30.2 °F 31% 29.98 in 10.0 mi SSE 9.2 mph - N/A   Clear
12:35 AM 59.0 °F 30.2 °F 34% 29.97 in 10.0 mi SSE 10.4 mph - N/A   Clear
12:55 AM 57.2 °F 32.0 °F 38% 29.97 in 10.0 mi SSE 11.5 mph - N/A   Clear
1:15 AM 57.2 °F 32.0 °F 38% 29.97 in 10.0 mi SSE 10.4 mph - N/A   Partly Cloudy
1:35 AM 57.2 °F 33.8 °F 41% 29.97 in 10.0 mi SSE 10.4 mph - N/A   Mostly Cloudy
1:55 AM 57.2 °F 33.8 °F 41% 29.96 in 10.0 mi SSE 10.4 mph - N/A   Overcast
2:15 AM 57.2 °F 33.8 °F 41% 29.96 in 10.0 mi SSE 11.5 mph - N/A   Overcast
2:35 AM 57.2 °F 35.6 °F 44% 29.95 in 10.0 mi SSE 10.4 mph - N/A   Overcast
2:55 AM 57.2 °F 37.4 °F 48% 29.95 in 10.0 mi SSE 11.5 mph - N/A   Overcast
3:15 AM 57.2 °F 37.4 °F 48% 29.95 in 10.0 mi South 10.4 mph - N/A   Mostly Cloudy
3:35 AM 57.2 °F 39.2 °F 51% 29.95 in 10.0 mi South 9.2 mph - N/A   Overcast
3:55 AM 57.2 °F 39.2 °F 51% 29.96 in 10.0 mi South 8.1 mph - N/A   Overcast
4:15 AM 59.0 °F 42.8 °F 55% 29.96 in 10.0 mi South 12.7 mph - N/A   Overcast
4:35 AM 59.0 °F 42.8 °F 55% 29.96 in 10.0 mi South 11.5 mph - N/A   Mostly Cloudy
4:55 AM 59.0 °F 42.8 °F 55% 29.95 in 10.0 mi South 12.7 mph - N/A   Mostly Cloudy
5:15 AM 59.0 °F 44.6 °F 59% 29.96 in 10.0 mi South 12.7 mph - N/A   Scattered Clouds
5:35 AM 59.0 °F 44.6 °F 59% 29.96 in 10.0 mi SSW 11.5 mph - N/A   Scattered Clouds
5:55 AM 60.8 °F 44.6 °F 55% 29.96 in 10.0 mi South 12.7 mph 18.4 mph N/A   Scattered Clouds
6:15 AM 60.8 °F 44.6 °F 55% 29.96 in 10.0 mi SSW 12.7 mph - N/A   Scattered Clouds
6:35 AM 60.8 °F 44.6 °F 55% 29.97 in 10.0 mi SSW 12.7 mph 16.1 mph N/A   Partly Cloudy
6:55 AM 60.8 °F 44.6 °F 55% 29.97 in 10.0 mi South 17.3 mph 21.9 mph N/A   Partly Cloudy
7:15 AM 60.8 °F 44.6 °F 55% 29.97 in 10.0 mi SSW 16.1 mph 21.9 mph N/A   Mostly Cloudy
7:35 AM 60.8 °F 44.6 °F 55% 29.97 in 10.0 mi South 15.0 mph - N/A   Overcast
7:55 AM 60.8 °F 46.4 °F 59% 29.97 in 10.0 mi South 17.3 mph 24.2 mph N/A   Mostly Cloudy
8:15 AM 62.6 °F 46.4 °F 55% 29.97 in 10.0 mi South 15.0 mph 21.9 mph N/A   Scattered Clouds
8:35 AM 64.4 °F 46.4 °F 52% 29.98 in 10.0 mi SSW 12.7 mph 17.3 mph N/A   Scattered Clouds
8:55 AM 64.4 °F 46.4 °F 52% 29.98 in 10.0 mi SSW 16.1 mph 24.2 mph N/A   Overcast
9:15 AM 64.4 °F 46.4 °F 52% 29.98 in 10.0 mi SSW 13.8 mph 21.9 mph N/A   Mostly Cloudy
9:35 AM 66.2 °F 46.4 °F 49% 29.98 in 10.0 mi SW 18.4 mph 27.6 mph N/A   Partly Cloudy
9:55 AM 66.2 °F 46.4 °F 49% 29.97 in 10.0 mi SSW 20.7 mph 28.8 mph N/A   Clear
10:15 AM 68.0 °F 48.2 °F 49% 29.97 in 10.0 mi SSW 17.3 mph 27.6 mph N/A   Clear
10:35 AM 69.8 °F 48.2 °F 46% 29.98 in 10.0 mi SSW 18.4 mph 25.3 mph N/A   Clear
10:55 AM 69.8 °F 50.0 °F 49% 29.97 in 10.0 mi SSW 18.4 mph 29.9 mph N/A   Scattered Clouds
11:55 AM 71.6 °F 51.8 °F 50% 29.95 in 10.0 mi SW 16.1 mph 24.2 mph N/A   Scattered Clouds
12:15 PM 71.6 °F 51.8 °F 50% 29.94 in 10.0 mi SW 19.6 mph 25.3 mph N/A   Partly Cloudy
12:35 PM 73.4 °F 51.8 °F 47% 29.93 in 10.0 mi South 28.8 mph 33.4 mph N/A   Scattered Clouds
12:55 PM 73.4 °F 51.8 °F 47% 29.92 in 10.0 mi SSW 27.6 mph 35.7 mph N/A   Scattered Clouds
1:15 PM 75.2 °F 51.8 °F 44% 29.92 in 10.0 mi SSW 16.1 mph 28.8 mph N/A   Partly Cloudy
1:35 PM 75.2 °F 51.8 °F 44% 29.92 in 10.0 mi SW 15.0 mph 33.4 mph N/A   Scattered Clouds
1:55 PM 77.0 °F 51.8 °F 41% 29.91 in 10.0 mi SSW 25.3 mph 34.5 mph N/A   Scattered Clouds
2:15 PM 77.0 °F 51.8 °F 41% 29.91 in 10.0 mi SSW 20.7 mph 29.9 mph N/A   Scattered Clouds
2:35 PM 77.0 °F 50.0 °F 39% 29.91 in 10.0 mi SSW 25.3 mph 31.1 mph N/A   Partly Cloudy
2:55 PM 75.2 °F 50.0 °F 41% 29.91 in 10.0 mi SW 23.0 mph 33.4 mph N/A   Clear
3:15 PM 77.0 °F 50.0 °F 39% 29.91 in 10.0 mi SSW 16.1 mph 24.2 mph N/A   Clear
3:35 PM 77.0 °F 48.2 °F 36% 29.91 in 10.0 mi SSW 28.8 mph 36.8 mph N/A   Partly Cloudy
3:55 PM 77.0 °F 50.0 °F 39% 29.91 in 10.0 mi SSW 18.4 mph 33.4 mph N/A   Partly Cloudy
4:15 PM 78.8 °F 50.0 °F 36% 29.90 in 10.0 mi SW 17.3 mph 29.9 mph N/A   Clear
4:35 PM 77.0 °F 50.0 °F 39% 29.90 in 10.0 mi SW 18.4 mph 32.2 mph N/A   Clear
4:55 PM 75.2 °F 48.2 °F 38% 29.90 in 10.0 mi SSW 15.0 mph 27.6 mph N/A   Clear
5:15 PM 77.0 °F 48.2 °F 36% 29.89 in 10.0 mi SW 20.7 mph 24.2 mph N/A   Clear
5:35 PM 75.2 °F 48.2 °F 38% 29.89 in 10.0 mi South 19.6 mph 26.5 mph N/A   Clear
5:55 PM 75.2 °F 48.2 °F 38% 29.89 in 10.0 mi SSW 20.7 mph 25.3 mph N/A   Clear
6:15 PM 75.2 °F 46.4 °F 36% 29.89 in 10.0 mi SSW 12.7 mph 23.0 mph N/A   Clear
6:35 PM 75.2 °F 46.4 °F 36% 29.89 in 10.0 mi SSW 13.8 mph 23.0 mph N/A   Clear
6:55 PM 73.4 °F 48.2 °F 41% 29.89 in 10.0 mi SSW 12.7 mph 19.6 mph N/A   Clear
7:15 PM 73.4 °F 48.2 °F 41% 29.88 in 10.0 mi South 11.5 mph - N/A   Clear
7:35 PM 71.6 °F 48.2 °F 43% 29.88 in 10.0 mi SSW 12.7 mph 16.1 mph N/A   Clear
7:55 PM 71.6 °F 46.4 °F 41% 29.88 in 10.0 mi SSW 12.7 mph 21.9 mph N/A   Clear
8:15 PM 71.6 °F 46.4 °F 41% 29.88 in 10.0 mi SSW 12.7 mph - N/A   Clear
8:35 PM 69.8 °F 46.4 °F 43% 29.88 in 10.0 mi SSW 11.5 mph - N/A   Clear
8:55 PM 69.8 °F 44.6 °F 40% 29.88 in 10.0 mi South 12.7 mph - N/A   Clear
9:15 PM 66.2 °F 44.6 °F 46% 29.88 in 10.0 mi South 11.5 mph - N/A   Clear
9:35 PM 64.4 °F 44.6 °F 49% 29.87 in 10.0 mi South 9.2 mph - N/A   Clear
9:55 PM 66.2 °F 44.6 °F 46% 29.87 in 10.0 mi South 10.4 mph - N/A   Clear
10:15 PM 66.2 °F 44.6 °F 46% 29.87 in 10.0 mi South 10.4 mph - N/A   Clear
10:35 PM 66.2 °F 44.6 °F 46% 29.86 in 10.0 mi South 9.2 mph - N/A   Clear
10:55 PM 66.2 °F 44.6 °F 46% 29.86 in 10.0 mi South 8.1 mph - N/A   Clear
11:15 PM 66.2 °F 44.6 °F 46% 29.85 in 10.0 mi SSE 8.1 mph - N/A   Clear
11:35 PM 66.2 °F 44.6 °F 46% 29.85 in 10.0 mi SSE 8.1 mph - N/A   Clear
11:55 PM 64.4 °F 44.6 °F 49% 29.84 in 10.0 mi SSE 8.1 mph - N/A   Clear